Fremont, MI

6:30 PM EDT on October 22, 2019 (GMT -0400)
Fremont

Weather History for KFFX - May, 2019

Change the Weather History Date:

Tuesday, May 7, 2019

  Actual Average (KMKG) Record (KMKG)
Temperature  
Mean Temperature 52 °F -  
Max Temperature 60 °F 64 °F 82 °F (2015)
Min Temperature 44 °F 41 °F 27 °F (1974)
Degree Days  
Heating Degree Days 13    
Growing Degree Days 2 (Base 50)    
Moisture  
Dew Point 33 °F    
Average Humidity 52    
Maximum Humidity 77    
Minimum Humidity 28    
Precipitation  
Precipitation 0.00 in - - ()
Sea Level Pressure  
Sea Level Pressure 30.23 in    
Wind  
Wind Speed 6 mph (NE)    
Max Wind Speed 10 mph    
Max Gust Speed 16 mph    
Visibility 10 miles    
Events      
Averages and records for this station are not official NWS values.
T = Trace of Precipitation, MM = Missing Value Source: NWS Daily Summary

Daily Weather History Graph

Daily Weather History Graph

Search for Another Location

Airport or City:

Astronomy

May. 07, 2019 Rise Set
Actual Time 6:29 AM EDT 8:52 PM EDT
Civil Twilight 5:57 AM EDT 9:24 PM EDT
Nautical Twilight 5:17 AM EDT 10:04 PM EDT
Astronomical Twilight 4:33 AM EDT 10:49 PM EDT
Moon 8:32 AM EDT (5/7) 11:55 PM EDT (5/7)
Length of Visible Light 15h 27m
Length of Day
14h 23m
Waxing Crescent, 8% of the Moon is Illuminated
May 7
Waxing Crescent
May 11
First Quarter
May 18
Full
May 26
Last Quarter
Jun 3
New

Hourly Weather History & Observations

Time (EDT) Temp. Windchill Dew Point Humidity Pressure Visibility Wind Dir Wind Speed Gust Speed Precip Events Conditions
12:15 AM 50.9 °F - 43.7 °F 76% 30.12 in 10.0 mi NE 5.8 mph - N/A   Mostly Cloudy
12:36 AM 50.9 °F - 43.7 °F 76% 30.12 in 10.0 mi NE 6.9 mph - N/A   Scattered Clouds
12:56 AM 50.7 °F - 42.8 °F 74% 30.12 in 10.0 mi NE 6.9 mph - N/A   Scattered Clouds
1:15 AM 50.4 °F - 42.8 °F 75% 30.13 in 10.0 mi NE 8.1 mph - N/A   Mostly Cloudy
1:36 AM 50.0 °F - 42.3 °F 75% 30.13 in 10.0 mi NE 9.2 mph - N/A   Mostly Cloudy
1:55 AM 49.6 °F - 42.1 °F 75% 30.14 in 10.0 mi NE 6.9 mph - N/A   Overcast
2:15 AM 49.3 °F - 42.1 °F 76% 30.14 in 10.0 mi NE 4.6 mph - N/A   Overcast
2:35 AM 49.1 °F - 41.9 °F 76% 30.14 in 10.0 mi NE 6.9 mph - N/A   Overcast
2:56 AM 48.7 °F - 41.9 °F 77% 30.15 in 10.0 mi NE 4.6 mph - N/A   Overcast
3:16 AM 48.4 °F - 41.5 °F 77% 30.15 in 10.0 mi NNE 5.8 mph - N/A   Overcast
3:35 AM 48.2 °F - 41.2 °F 77% 30.15 in 10.0 mi NE 6.9 mph - N/A   Overcast
3:56 AM 48.2 °F - 41.0 °F 76% 30.15 in 10.0 mi NE 5.8 mph - N/A   Overcast
4:16 AM 48.0 °F - 40.8 °F 76% 30.15 in 10.0 mi NE 6.9 mph - N/A   Overcast
4:36 AM 47.8 °F - 40.5 °F 76% 30.16 in 10.0 mi NE 8.1 mph - N/A   Overcast
4:56 AM 47.3 °F - 40.3 °F 77% 30.17 in 10.0 mi NE 5.8 mph - N/A   Overcast
5:16 AM 47.3 °F - 39.9 °F 76% 30.18 in 10.0 mi NE 6.9 mph - N/A   Overcast
5:35 AM 46.9 °F - 39.9 °F 77% 30.19 in 10.0 mi NE 5.8 mph - N/A   Overcast
5:55 AM 46.6 °F - 39.2 °F 75% 30.20 in 10.0 mi NNE 6.9 mph - N/A   Mostly Cloudy
6:15 AM 46.4 °F 41.9 °F 38.1 °F 73% 30.20 in 10.0 mi ENE 9.2 mph - N/A   Overcast
6:36 AM 45.3 °F 40.6 °F 34.5 °F 66% 30.20 in 10.0 mi NE 9.2 mph - N/A   Overcast
6:56 AM 45.0 °F 40.6 °F 33.6 °F 64% 30.20 in 10.0 mi NE 8.1 mph - N/A   Overcast
7:15 AM 44.6 °F 39.2 °F 30.9 °F 59% 30.21 in 10.0 mi NE 10.4 mph - N/A   Overcast
7:35 AM 44.2 °F 39.7 °F 27.9 °F 53% 30.23 in 10.0 mi NE 8.1 mph - N/A   Overcast
7:56 AM 44.2 °F 38.8 °F 27.7 °F 52% 30.23 in 10.0 mi ENE 10.4 mph - N/A   Overcast
8:16 AM 44.6 °F 40.7 °F 27.9 °F 52% 30.25 in 10.0 mi NE 6.9 mph - N/A   Overcast
8:35 AM 44.8 °F 40.4 °F 28.4 °F 53% 30.25 in 10.0 mi NE 8.1 mph - N/A   Overcast
8:55 AM 45.1 °F 40.8 °F 28.2 °F 52% 30.25 in 10.0 mi NE 8.1 mph - N/A   Overcast
9:16 AM 45.9 °F 41.7 °F 27.9 °F 49% 30.26 in 10.0 mi NE 8.1 mph - N/A   Overcast
9:35 AM 46.2 °F 42.2 °F 27.3 °F 48% 30.26 in 10.0 mi NE 8.1 mph - N/A   Overcast
9:55 AM 46.8 °F - 26.6 °F 45% 30.27 in 10.0 mi NE 6.9 mph - N/A   Overcast
10:16 AM 47.3 °F - 27.5 °F 46% 30.27 in 10.0 mi NNE 5.8 mph - N/A   Overcast
10:36 AM 48.2 °F - 27.3 °F 44% 30.28 in 10.0 mi Calm Calm - N/A   Overcast
10:55 AM 49.3 °F - 28.9 °F 45% 30.28 in 10.0 mi NNE 5.8 mph - N/A   Overcast
11:15 AM 49.5 °F - 28.8 °F 45% 30.28 in 10.0 mi NNE 5.8 mph - N/A   Overcast
11:36 AM 50.0 °F - 27.9 °F 42% 30.28 in 10.0 mi ENE 5.8 mph - N/A   Overcast
11:55 AM 50.9 °F - 27.3 °F 40% 30.29 in 10.0 mi NE 4.6 mph - N/A   Overcast
12:15 PM 51.4 °F - 28.8 °F 42% 30.29 in 10.0 mi ENE 3.5 mph - N/A   Overcast
12:36 PM 52.2 °F - 29.8 °F 42% 30.29 in 10.0 mi NE 6.9 mph - N/A   Overcast
12:56 PM 53.6 °F - 29.7 °F 40% 30.29 in 10.0 mi Calm Calm - N/A   Overcast
1:15 PM 54.5 °F - 30.7 °F 40% 30.29 in 10.0 mi NE 5.8 mph - N/A   Scattered Clouds
1:35 PM 55.2 °F - 30.0 °F 38% 30.28 in 10.0 mi East 5.8 mph - N/A   Clear
1:55 PM 55.8 °F - 30.6 °F 38% 30.28 in 10.0 mi NE 4.6 mph - N/A   Clear
2:15 PM 56.3 °F - 30.9 °F 38% 30.27 in 10.0 mi ENE 8.1 mph - N/A   Clear
2:36 PM 57.0 °F - 30.4 °F 36% 30.27 in 10.0 mi Calm Calm - N/A   Clear
2:55 PM 58.5 °F - 32.7 °F 38% 30.27 in 10.0 mi East 8.1 mph 16.1 mph N/A   Clear
3:15 PM 57.9 °F - 31.6 °F 37% 30.27 in 10.0 mi North 5.8 mph - N/A   Clear
3:36 PM 58.3 °F - 31.3 °F 36% 30.27 in 10.0 mi East 4.6 mph - N/A   Clear
3:56 PM 57.6 °F - 29.8 °F 35% 30.26 in 10.0 mi Calm Calm - N/A   Clear
4:16 PM 59.2 °F - 33.1 °F 37% 30.26 in 10.0 mi North 8.1 mph - N/A   Clear
4:36 PM 59.2 °F - 32.0 °F 36% 30.25 in 10.0 mi North 4.6 mph - N/A   Clear
4:56 PM 59.4 °F - 29.5 °F 32% 30.25 in 10.0 mi West 3.5 mph - N/A   Clear
5:16 PM 59.7 °F - 29.8 °F 32% 30.25 in 10.0 mi North 4.6 mph - N/A   Clear
5:35 PM 60.6 °F - 31.6 °F 34% 30.24 in 10.0 mi NE 6.9 mph 16.1 mph N/A   Clear
5:55 PM 60.4 °F - 29.8 °F 31% 30.24 in 10.0 mi WNW 3.5 mph - N/A   Clear
6:16 PM 60.6 °F - 29.8 °F 31% 30.24 in 10.0 mi Calm Calm - N/A   Clear
6:35 PM 60.8 °F - 28.0 °F 29% 30.24 in 10.0 mi Calm Calm - N/A   Clear
6:55 PM 60.4 °F - 27.0 °F 28% 30.23 in 10.0 mi Calm Calm - N/A   Clear
7:16 PM 60.1 °F - 27.7 °F 29% 30.23 in 10.0 mi North 3.5 mph - N/A   Clear
7:35 PM 59.7 °F - 28.6 °F 31% 30.23 in 10.0 mi NNW 3.5 mph - N/A   Clear
7:55 PM 57.6 °F - 33.4 °F 40% 30.23 in 10.0 mi NNW 3.5 mph - N/A   Clear
8:16 PM 55.4 °F - 34.9 °F 46% 30.24 in 10.0 mi NNW 6.9 mph - N/A   Clear
8:36 PM 53.1 °F - 35.8 °F 52% 30.23 in 10.0 mi NNW 6.9 mph - N/A   Clear
8:55 PM 52.3 °F - 34.2 °F 50% 30.24 in 10.0 mi NNW 5.8 mph - N/A   Clear
9:15 PM 50.7 °F - 34.9 °F 55% 30.25 in 10.0 mi NNW 5.8 mph - N/A   Clear
9:36 PM 49.1 °F - 34.3 °F 57% 30.25 in 10.0 mi North 4.6 mph - N/A   Clear
9:56 PM 49.8 °F - 33.1 °F 53% 30.25 in 10.0 mi North 3.5 mph - N/A   Clear
10:15 PM 49.5 °F - 31.5 °F 50% 30.25 in 10.0 mi Calm Calm - N/A   Clear
10:36 PM 49.1 °F - 31.1 °F 50% 30.26 in 10.0 mi Calm Calm - N/A   Clear
10:56 PM 48.9 °F - 30.9 °F 50% 30.26 in 10.0 mi NNE 3.5 mph - N/A   Clear
11:15 PM 48.6 °F - 30.0 °F 49% 30.26 in 10.0 mi NNE 4.6 mph - N/A   Clear
11:36 PM 48.2 °F - 29.8 °F 49% 30.26 in 10.0 mi NE 6.9 mph - N/A   Clear
11:55 PM 48.4 °F - 29.8 °F 49% 30.26 in 10.0 mi ENE 9.2 mph - N/A   Clear